Weather History for KLHQ - June, 2013

Change the Weather History Date:

Saturday, June 1, 2013

  Actual Average Record
Temperature  
Mean Temperature 75 °F -  
Max Temperature 84 °F 76 °F - (-1)
Min Temperature 66 °F 54 °F - (-1)
Cooling Degree Days 10    
Growing Degree Days 25 (Base 50)    
Moisture  
Dew Point 66 °F    
Average Humidity 73    
Maximum Humidity 93    
Minimum Humidity 53    
Precipitation  
Precipitation 0.03 in - - ()
Sea Level Pressure  
Sea Level Pressure 29.89 in    
Wind  
Wind Speed 8 mph (SSW)    
Max Wind Speed 21 mph    
Max Gust Speed 31 mph    
Visibility 10 miles    
Events Rain , Thunderstorm    
Averages and records for this station are not official NWS values.
T = Trace of Precipitation, MM = Missing Value Source: NWS Daily Summary

Daily Weather History Graph

Daily Weather History Graph

Search for Another Location

Airport or City:

Trip Planner

Search our weather history database for the weather conditions in past years. The results will help you decide how hot, cold, wet, or windy it might be!

Date:

Astronomy

Jun. 01, 2013 Rise Set
Actual Time 6:04 AM EDT 8:52 PM EDT
Civil Twilight 5:32 AM EDT 9:24 PM EDT
Nautical Twilight 4:52 AM EDT 10:05 PM EDT
Astronomical Twilight 4:06 AM EDT 10:51 PM EDT
Moon 1:58 AM EDT (6/1) 2:21 PM EDT (6/1)
Length of Visible Light 15h 52m
Length of Day
14h 48m
Last Quarter, 41% of the Moon is Illuminated
Jun 1
Last Quarter
Jun 8
New
Jun 16
First Quarter
Jun 23
Full
Jun 30
Last Quarter

Hourly Weather History & Observations

Time (EDT) Temp. Heat Index Dew Point Humidity Pressure Visibility Wind Dir Wind Speed Gust Speed Precip Events Conditions
12:53 AM 66.9 °F - 64.9 °F 93% 29.99 in 10.0 mi Calm Calm - N/A   Clear
1:53 AM 66.9 °F - 64.9 °F 93% 29.98 in 10.0 mi Calm Calm - N/A   Mostly Cloudy
2:53 AM 66.9 °F - 64.0 °F 90% 29.96 in 10.0 mi SSE 5.8 mph - N/A   Clear
3:53 AM 70.0 °F - 64.0 °F 81% 29.95 in 10.0 mi SSW 6.9 mph - N/A   Overcast
4:53 AM 70.0 °F - 64.0 °F 81% 29.93 in 10.0 mi SSW 6.9 mph - N/A   Scattered Clouds
5:53 AM 70.0 °F - 63.0 °F 78% 29.93 in 10.0 mi SSW 5.8 mph - N/A   Scattered Clouds
6:53 AM 71.1 °F - 64.0 °F 78% 29.94 in 10.0 mi South 5.8 mph - N/A   Mostly Cloudy
7:53 AM 73.0 °F - 64.0 °F 73% 29.94 in 10.0 mi SSW 10.4 mph - N/A   Clear
8:53 AM 73.0 °F - 64.0 °F 73% 29.94 in 10.0 mi SSW 9.2 mph - N/A   Mostly Cloudy
9:53 AM 75.0 °F - 64.9 °F 71% 29.92 in 10.0 mi SSW 15.0 mph 21.9 mph N/A   Clear
10:53 AM 77.0 °F - 64.9 °F 66% 29.91 in 10.0 mi SSW 12.7 mph 20.7 mph N/A   Clear
11:53 AM 80.1 °F 82.3 °F 66.9 °F 64% 29.92 in 10.0 mi SSW 13.8 mph 25.3 mph N/A   Partly Cloudy
12:53 PM 80.1 °F 82.1 °F 66.0 °F 62% 29.91 in 10.0 mi SW 13.8 mph 24.2 mph N/A   Partly Cloudy
1:53 PM 80.1 °F 82.3 °F 66.9 °F 64% 29.90 in 10.0 mi SSW 11.5 mph - N/A   Partly Cloudy
2:53 PM 82.9 °F 85.4 °F 66.9 °F 58% 29.88 in 10.0 mi SSW 15.0 mph 24.2 mph N/A   Mostly Cloudy
3:53 PM 82.9 °F 85.0 °F 66.0 °F 56% 29.88 in 10.0 mi SW 20.7 mph 31.1 mph N/A   Mostly Cloudy
4:53 PM 84.0 °F 85.8 °F 64.9 °F 53% 29.86 in 10.0 mi SW 16.1 mph 27.6 mph N/A   Scattered Clouds
5:53 PM 82.9 °F 84.6 °F 64.9 °F 54% 29.85 in 10.0 mi SW 17.3 mph 25.3 mph N/A   Partly Cloudy
6:53 PM 81.0 °F 83.0 °F 66.0 °F 60% 29.84 in 10.0 mi SSW 13.8 mph 20.7 mph N/A   Mostly Cloudy
7:53 PM 79.0 °F - 66.0 °F 64% 29.83 in 10.0 mi South 10.4 mph - N/A   Scattered Clouds
8:35 PM 78.8 °F - 66.2 °F 65% 29.85 in 10.0 mi South 10.4 mph - N/A Thunderstorm Scattered Clouds
8:53 PM 73.9 °F - 68.0 °F 82% 29.82 in 5.0 mi SW 8.1 mph 25.3 mph 0.02 in Rain , Thunderstorm Light Thunderstorms and Rain
9:14 PM 73.4 °F - 68.0 °F 83% 29.83 in 9.0 mi SSW 10.4 mph 16.1 mph 0.01 in Rain Light Rain
9:53 PM 73.0 °F - 69.1 °F 87% 29.80 in 10.0 mi South 10.4 mph - 0.01 in   Clear
10:53 PM 73.0 °F - 68.0 °F 84% 29.81 in 10.0 mi South 9.2 mph - N/A   Overcast
11:53 PM 72.0 °F - 68.0 °F 87% 29.79 in 10.0 mi SW 6.9 mph - 0.00 in   Overcast